| time (UTC) | temp F | wind direction | speed MPH | gust MPH | rain 1hr in | rain 24hr in | rain mn in | humidity % | barometer mb |
| 20260905125646 | 70 | 301 | 14.0 | 0.0 | 0.00 | 0.00 | 0.00 | 65 | 1011.3 |
| 20260905125325 | 70 | 301 | 14.0 | 0.0 | 0.00 | 0.00 | 0.00 | 65 | 1011.3 |
| 20260905115330 | 71 | 289 | 14.0 | 0.0 | 0.00 | 0.00 | 0.00 | 65 | 1011.3 |
| 20260905112321 | 69 | 291 | 15.0 | 0.0 | 0.00 | 0.00 | 0.00 | 65 | 1011.3 |
| 20260905102318 | 68 | 290 | 14.0 | 0.0 | 0.00 | 0.00 | 0.00 | 65 | 1011.3 |
| 20260905092319 | 66 | 294 | 13.0 | 0.0 | 0.00 | 0.00 | 0.00 | 65 | 1011.3 |
| 20260905085319 | 65 | 295 | 13.0 | 0.0 | 0.00 | 0.00 | 0.00 | 65 | 1011.3 |
| 20260905065321 | 63 | 264 | 8.0 | 0.0 | 0.00 | 0.00 | 0.00 | 65 | 1011.3 |
| 20260905062319 | 62 | 263 | 7.0 | 0.0 | 0.00 | 0.00 | 0.00 | 65 | 1011.3 |
| 20260905052321 | 62 | 273 | 9.0 | 0.0 | 0.00 | 0.00 | 0.00 | 65 | 1011.3 |
| 20260905045319 | 62 | 276 | 10.0 | 0.0 | 0.00 | 0.00 | 0.00 | 65 | 1011.3 |
| 20260905035327 | 61 | 267 | 9.0 | 0.0 | 0.00 | 0.00 | 0.00 | 65 | 1011.3 |
| 20260905032326 | 61 | 255 | 8.0 | 0.0 | 0.00 | 0.00 | 0.00 | 65 | 1011.3 |
| 20260905025318 | 61 | 255 | 7.0 | 0.0 | 0.00 | 0.00 | 0.00 | 65 | 1011.3 |
| 20260905022318 | 61 | 270 | 7.0 | 0.0 | 0.00 | 0.00 | 0.00 | 65 | 1011.3 |
| 20260905015321 | 61 | 270 | 8.0 | 0.0 | 0.00 | 0.00 | 0.00 | 65 | 1011.3 |
| 20260905012321 | 62 | 279 | 9.0 | 0.0 | 0.00 | 0.00 | 0.00 | 65 | 1011.3 |
| 20260905002318 | 63 | 272 | 11.0 | 0.0 | 0.00 | 0.00 | 0.00 | 65 | 1011.3 |
| 20260904235318 | 63 | 270 | 11.0 | 0.0 | 0.00 | 0.00 | 0.00 | 65 | 1011.3 |
| 20260904232327 | 64 | 267 | 9.0 | 0.0 | 0.00 | 0.00 | 0.00 | 65 | 1011.3 |
| 20260904222319 | 67 | 304 | 11.0 | 0.0 | 0.00 | 0.00 | 0.00 | 65 | 1010.9 |
| 20260904215319 | 68 | 304 | 10.0 | 0.0 | 0.00 | 0.00 | 0.00 | 64 | 1016.3 |
| 20260904212319 | 69 | 303 | 11.0 | 0.0 | 0.00 | 0.00 | 0.00 | 64 | 1016.3 |
| 20260904205322 | 70 | 308 | 12.0 | 0.0 | 0.00 | 0.00 | 0.00 | 64 | 1016.3 |
| 20260904195326 | 73 | 303 | 12.0 | 0.0 | 0.00 | 0.00 | 0.00 | 64 | 1016.3 |
| 20260904192319 | 74 | 246 | 10.0 | 0.0 | 0.00 | 0.00 | 0.00 | 64 | 1016.3 |
| 20260904185319 | 77 | 222 | 13.0 | 0.0 | 0.00 | 0.00 | 0.00 | 64 | 1016.3 |
| 20260904182320 | 76 | 223 | 13.0 | 0.0 | 0.00 | 0.00 | 0.00 | 64 | 1016.3 |
| 20260904175319 | 77 | 227 | 12.0 | 0.0 | 0.00 | 0.00 | 0.00 | 64 | 1016.3 |
| 20260904172319 | 77 | 237 | 11.0 | 0.0 | 0.00 | 0.00 | 0.00 | 64 | 1016.3 |
| 20260904165333 | 78 | 241 | 11.0 | 0.0 | 0.00 | 0.00 | 0.00 | 64 | 1016.3 |
| 20260904162326 | 78 | 243 | 13.0 | 0.0 | 0.00 | 0.00 | 0.00 | 64 | 1016.3 |
| 20260904152320 | 78 | 246 | 12.0 | 0.0 | 0.00 | 0.00 | 0.00 | 64 | 1016.3 |
| 20260904145332 | 78 | 248 | 13.0 | 0.0 | 0.00 | 0.00 | 0.00 | 64 | 1016.3 |